Stations météo

Publicité
Aeroport de Lannion, France (7118): Température de l'air & dewpoint: 13.02.2020 09:00:00 - 19.02.2020 09:00:00 (CET)Aeroport de Lannion, France (7118): Vitesse du vent & gusts: 13.02.2020 09:00:00 - 19.02.2020 09:00:00 (CET)Aeroport de Lannion, France (7118): Direction du vent: 13.02.2020 09:00:00 - 19.02.2020 09:00:00 (CET)Aeroport de Lannion, France (7118): reduced air pressure: 13.02.2020 09:00:00 - 19.02.2020 09:00:00 (CET)Aeroport de Lannion, France (7118): visibility: 13.02.2020 09:00:00 - 19.02.2020 09:00:00 (CET)Aeroport de Lannion, France (7118): Quantités de précipitations: 13.02.2020 09:00:00 - 19.02.2020 09:00:00 (CET)
Date & Time tt [°C] td [°C] ff [km/h] ff [knt] fx [km/h] fx [knt] dd ppp [hPa] vv [km] rr [mm]
19.02.2020 09:00:00 - - - - - - - - - -
19.02.2020 08:00:00 7,5 5,3 11 6 17 9 SSW 1028,1 11 0,0
19.02.2020 07:00:00 8,2 5,5 13 7 22 12 W 1028,0 14 0,0
19.02.2020 06:00:00 7,7 4,8 15 8 27 14 W 1027,6 14 0,0
19.02.2020 05:00:00 7,8 5,1 17 9 30 16 WNW 1027,3 11 0,0
19.02.2020 04:00:00 8,2 5,1 19 11 45 25 WNW 1027,3 12 0,0
19.02.2020 03:00:00 8,1 4,5 24 13 45 25 WNW 1027,3 15 0,0
19.02.2020 02:00:00 8,0 5,8 24 13 66 35 WNW 1027,2 14 0,6
19.02.2020 01:00:00 8,2 6,3 33 18 75 41 W 1026,4 17 0,6
19.02.2020 00:00:00 9,6 7,5 38 20 61 33 W 1025,7 12 0,6
18.02.2020 23:00:00 9,6 6,9 37 20 58 31 WSW 1025,9 15 0,0
18.02.2020 22:00:00 9,4 6,5 32 18 55 30 WSW 1025,7 15 0,0
18.02.2020 21:00:00 9,2 6,3 33 18 54 29 WSW 1025,9 16 0,0
18.02.2020 20:00:00 8,9 6,3 26 14 44 24 SW 1026,6 19 0,0
18.02.2020 19:00:00 9,1 6,4 26 14 45 24 WSW 1026,3 20 0,0
18.02.2020 18:00:00 9,2 6,1 29 16 56 30 SW 1026,4 47 0,2
18.02.2020 17:00:00 10,0 5,4 28 15 49 27 WSW 1027,0 20 0,0
18.02.2020 16:00:00 10,3 6,4 28 15 52 28 SW 1027,0 20 0,2
18.02.2020 15:00:00 10,6 6,2 23 13 56 30 WSW 1027,7 22 0,4
18.02.2020 14:00:00 10,5 5,0 25 13 48 26 WSW 1028,4 14 0,0
18.02.2020 13:00:00 10,9 5,2 26 14 48 26 WSW 1028,7 19 0,0
18.02.2020 12:00:00 10,0 5,6 29 16 44 24 WSW 1028,8 19 0,0
18.02.2020 11:00:00 9,0 5,2 23 12 38 21 SW 1028,9 19 0,0
18.02.2020 10:00:00 7,6 4,7 18 10 39 21 SW 1028,9 20 0,0
18.02.2020 09:00:00 6,2 4,2 17 9 27 14 SW 1028,8 17 0,0
18.02.2020 08:00:00 5,6 3,8 14 8 22 12 SW 1028,4 18 0,0
18.02.2020 07:00:00 5,6 3,9 14 8 37 20 SW 1028,1 19 0,0
18.02.2020 06:00:00 6,2 4,2 19 10 33 18 SW 1027,6 18 0,0
18.02.2020 05:00:00 5,7 3,4 18 10 31 17 SW 1027,6 20 0,0
18.02.2020 04:00:00 5,9 3,2 19 10 31 17 SW 1027,8 48 0,0
18.02.2020 03:00:00 5,7 3,0 20 11 35 19 SW 1027,7 45 0,0
18.02.2020 02:00:00 5,8 2,8 20 11 35 19 SW 1027,8 18 0,0
18.02.2020 01:00:00 5,9 3,1 22 12 34 19 SW 1027,4 18 0,0
18.02.2020 00:00:00 5,9 3,4 21 11 30 16 SW 1027,3 17 0,0
17.02.2020 23:00:00 6,2 3,9 21 11 50 27 SW 1027,1 18 0,2
17.02.2020 22:00:00 6,2 3,2 25 13 45 25 SW 1026,4 17 0,0
17.02.2020 21:00:00 7,4 2,5 32 17 54 29 W 1025,8 19 0,0
17.02.2020 20:00:00 7,1 3,0 31 17 58 31 WSW 1024,8 20 0,0
17.02.2020 19:00:00 7,1 3,9 30 16 80 43 WSW 1023,7 20 0,4
17.02.2020 18:00:00 8,1 3,9 27 14 48 26 WSW 1022,6 20 0,0
17.02.2020 17:00:00 8,5 4,1 32 18 67 36 WSW 1022,0 20 0,8
17.02.2020 16:00:00 8,7 5,4 24 13 79 43 WSW 1021,0 16 0,4
17.02.2020 15:00:00 9,9 4,9 34 18 62 33 WSW 1020,1 14 0,0
17.02.2020 14:00:00 9,7 5,5 34 19 64 34 WSW 1019,8 13 0,8
17.02.2020 13:00:00 10,5 5,3 36 20 63 34 WSW 1019,4 10 0,4
17.02.2020 12:00:00 8,0 5,1 34 18 74 40 WSW 1018,9 16 1,4
17.02.2020 11:00:00 8,7 4,5 29 15 48 26 SW 1017,9 19 0,0
17.02.2020 10:00:00 7,2 3,6 24 13 77 42 SW 1017,1 19 0,2
17.02.2020 09:00:00 6,4 1,9 25 14 54 29 SW 1016,5 60 0,0
17.02.2020 08:00:00 7,0 4,3 23 13 44 24 SW 1015,2 19 0,0
17.02.2020 07:00:00 6,7 4,2 16 9 36 20 SSW 1014,6 46 0,0
17.02.2020 06:00:00 6,7 3,8 23 12 42 23 SW 1014,3 57 0,0
17.02.2020 05:00:00 6,6 3,9 18 10 30 16 SSW 1014,3 19 0,0
17.02.2020 04:00:00 6,6 3,9 23 12 47 25 SSW 1014,7 60 0,4
17.02.2020 03:00:00 6,9 3,7 14 8 27 15 S 1014,6 18 0,0
17.02.2020 02:00:00 6,9 3,7 16 9 24 13 SSW 1014,6 18 0,0
17.02.2020 01:00:00 7,0 4,1 13 7 27 14 S 1014,6 17 0,0
17.02.2020 00:00:00 7,2 3,8 13 7 28 15 SSW 1014,1 17 0,0
16.02.2020 23:00:00 7,3 3,9 16 9 29 15 SSW 1013,5 15 0,0
16.02.2020 22:00:00 7,7 4,1 18 10 35 19 SW 1012,4 15 0,0
16.02.2020 21:00:00 7,8 4,6 21 12 41 22 SW 1011,5 14 0,0
16.02.2020 20:00:00 8,1 5,6 22 12 41 22 SW 1010,7 16 0,0
16.02.2020 19:00:00 8,6 6,4 27 14 47 26 WSW 1009,0 19 0,0
16.02.2020 18:00:00 7,3 6,1 31 17 59 32 WSW 1008,1 5 2,4
16.02.2020 17:00:00 9,0 6,8 29 16 51 27 SW 1006,6 55 0,0
16.02.2020 16:00:00 8,7 7,8 20 11 47 25 SSW 1005,7 19 0,6
16.02.2020 15:00:00 8,2 7,4 30 16 74 40 W 1004,7 7 1,6
16.02.2020 14:00:00 9,1 8,2 45 24 93 50 W 1002,3 3,9 4,7
16.02.2020 13:00:00 14,6 12,6 52 28 95 52 SSW 999,1 6 0,4
16.02.2020 12:00:00 14,8 12,5 49 26 98 53 SSW 999,9 18 0,0
16.02.2020 11:00:00 14,5 12,5 49 26 91 49 SSW 1000,3 8 0,4
16.02.2020 10:00:00 14,6 12,3 46 25 79 42 SSW 1000,5 41 0,0
16.02.2020 09:00:00 14,1 12,5 43 23 77 42 SSW 1001,2 13 0,2
16.02.2020 08:00:00 14,1 12,5 44 24 76 41 SSW 1001,5 8 0,4
16.02.2020 07:00:00 14,0 12,4 50 27 80 43 SSW 1001,8 5 0,6
16.02.2020 06:00:00 13,9 12,5 48 26 90 49 SSW 1001,8 4,1 0,2
16.02.2020 05:00:00 13,8 12,4 44 24 81 44 SSW 1002,4 8 0,4
16.02.2020 04:00:00 13,5 12,2 42 23 81 44 SSW 1002,8 6 0,4
16.02.2020 03:00:00 13,6 12,2 42 23 78 42 SSW 1003,5 9 0,4
16.02.2020 02:00:00 13,5 11,9 39 21 67 36 SSW 1004,0 14 0,2
16.02.2020 01:00:00 13,6 12,0 37 20 68 37 SSW 1005,0 11 0,4
16.02.2020 00:00:00 13,6 11,8 40 22 69 37 SSW 1005,6 17 0,6
15.02.2020 23:00:00 13,6 11,8 37 20 68 37 SSW 1006,1 19 0,0
15.02.2020 22:00:00 13,4 12,0 37 20 69 37 SSW 1006,7 15 0,0
15.02.2020 21:00:00 13,5 11,7 40 21 70 38 SSW 1007,5 19 0,0
15.02.2020 20:00:00 13,3 11,7 39 21 62 34 SSW 1007,6 18 0,0
15.02.2020 19:00:00 13,0 11,2 42 23 78 42 SSW 1007,0 19 0,0
15.02.2020 18:00:00 12,7 11,1 40 21 77 42 S 1007,4 14 0,0
15.02.2020 17:00:00 12,6 10,7 36 19 75 40 S 1007,6 20 1,4
15.02.2020 16:00:00 12,7 10,6 41 22 74 40 SSW 1008,5 11 0,8
15.02.2020 15:00:00 12,9 10,4 47 25 91 49 S 1008,8 14 0,2
15.02.2020 14:00:00 13,2 10,4 41 22 69 38 S 1009,8 36 0,0
15.02.2020 13:00:00 13,4 10,0 41 22 72 39 SSW 1011,2 47 0,0
15.02.2020 12:00:00 13,2 9,6 36 19 72 39 S 1011,3 36 0,0
15.02.2020 11:00:00 13,0 9,8 37 20 78 42 S 1012,6 47 0,0
15.02.2020 10:00:00 12,9 9,7 30 16 55 30 S 1013,6 41 0,0
15.02.2020 09:00:00 12,3 10,0 24 13 52 28 S 1014,5 58 0,0
15.02.2020 08:00:00 12,5 9,9 26 14 44 24 S 1014,8 18 0,0
15.02.2020 07:00:00 12,6 9,8 25 13 47 26 S 1015,0 60 0,0
15.02.2020 06:00:00 12,4 9,8 23 13 40 22 S 1015,6 54 0,0
15.02.2020 05:00:00 12,2 9,8 19 11 37 20 S 1016,4 48 0,0
15.02.2020 04:00:00 12,5 10,2 20 11 39 21 S 1016,8 51 0,0
15.02.2020 03:00:00 12,3 10,5 17 9 31 17 SSW 1018,1 14 0,0
15.02.2020 02:00:00 12,3 10,4 19 11 35 19 S 1018,3 59 0,0
15.02.2020 01:00:00 12,2 10,3 24 13 47 25 S 1018,4 57 0,0
15.02.2020 00:00:00 12,1 10,0 22 12 43 23 S 1018,7 60 0,0
14.02.2020 23:00:00 12,2 10,1 23 13 42 23 S 1019,6 44 0,0
14.02.2020 22:00:00 11,9 10,1 22 12 40 22 S 1020,0 59 0,0
14.02.2020 21:00:00 11,7 10,1 21 12 44 24 S 1020,2 41 0,0
14.02.2020 20:00:00 11,7 9,9 18 10 37 20 S 1020,3 20 0,0
14.02.2020 19:00:00 11,6 9,7 16 9 38 21 S 1020,3 37 0,0
14.02.2020 18:00:00 11,8 9,4 17 9 38 20 S 1020,4 20 0,0
14.02.2020 17:00:00 12,4 8,7 19 10 35 19 SSW 1020,7 20 0,0
14.02.2020 16:00:00 12,5 8,0 25 14 55 30 SSW 1020,8 19 0,0
14.02.2020 15:00:00 12,5 7,6 26 14 42 23 SW 1020,8 17 0,0
14.02.2020 14:00:00 12,7 7,4 21 11 43 23 SSW 1021,0 17 0,0
14.02.2020 13:00:00 11,7 7,4 24 13 50 27 SSW 1021,3 15 0,0
14.02.2020 12:00:00 11,1 7,4 31 17 50 27 SSW 1021,8 15 0,0
14.02.2020 11:00:00 9,6 6,7 26 14 43 23 SSW 1022,0 12 0,0
14.02.2020 10:00:00 8,4 6,2 19 11 29 15 SSW 1022,1 11 0,0
14.02.2020 09:00:00 6,8 5,4 14 7 23 13 SSW 1021,6 10 0,0
14.02.2020 08:00:00 6,2 5,2 10 5 19 11 S 1021,2 9 0,0
14.02.2020 07:00:00 6,9 5,8 11 6 20 11 S 1021,0 9 0,0
14.02.2020 06:00:00 6,9 5,7 10 5 19 11 SSW 1020,5 10 0,0
14.02.2020 05:00:00 7,3 5,9 10 5 19 11 S 1020,1 9 0,0
14.02.2020 04:00:00 8,0 6,1 12 7 29 16 WSW 1020,0 10 0,0
14.02.2020 03:00:00 8,7 6,5 21 11 35 19 WSW 1019,9 11 0,0
14.02.2020 02:00:00 9,1 6,4 17 9 41 22 WSW 1019,4 10 0,0
14.02.2020 01:00:00 9,2 5,7 26 14 48 26 W 1018,7 16 0,0
14.02.2020 00:00:00 9,6 5,9 24 13 54 29 W 1018,0 16 0,0
13.02.2020 23:00:00 9,8 5,6 34 19 59 32 W 1017,3 17 0,0
13.02.2020 22:00:00 9,9 6,1 31 17 65 35 W 1016,1 14 0,0
13.02.2020 21:00:00 9,7 6,0 37 20 64 35 W 1014,7 14 0,0
13.02.2020 20:00:00 9,8 6,1 44 24 67 36 W 1013,3 14 0,0
13.02.2020 19:00:00 9,8 6,3 39 21 69 37 W 1011,7 12 0,0
13.02.2020 18:00:00 9,4 7,0 39 21 69 38 W 1010,0 7 0,2
13.02.2020 17:00:00 9,9 6,8 46 25 74 40 W 1008,5 9 0,0
13.02.2020 16:00:00 10,6 7,1 44 24 79 43 W 1006,5 9 0,0
13.02.2020 15:00:00 10,2 7,4 51 28 90 49 W 1004,8 8 1,4
13.02.2020 14:00:00 10,0 8,1 51 27 88 47 W 1003,4 6 0,6
13.02.2020 13:00:00 10,0 7,4 54 29 90 49 WSW 1002,2 8 1,2
13.02.2020 12:00:00 9,2 6,5 48 26 82 44 WSW 1001,1 4,5 0,2
13.02.2020 11:00:00 9,5 5,3 48 26 77 42 SW 1000,9 9 0,2
13.02.2020 10:00:00 8,7 4,7 48 26 85 46 WSW 1001,2 9 0,2
13.02.2020 09:00:00 9,2 4,6 39 21 71 39 SW 1001,1 11 0,0

tt = Température de l'air
td = dewpoint
ff = Vitesse du vent
fx = gusts
dd = Direction du vent
ppp = reduced air pressure
vv = visibility
rr = Quantités de précipitations

stations d'obs. à proximité